SL-16 DEB, 22451

Orbit data source: Space-Track

SL-16 DEB, 22451 is space debris in LEO originally from a launch on Fri, 25 Dec 1992 UTC launched from the Tyuratam Missile And Space Complex (TTMTR). Debris objects in space refer to the collection of defunct objects orbiting the Earth. Examples of debris include non-operational satellites, rocket bodies, and fragments generated from explosions, collisions, or faulty payload assembly.

Loading next visibility...
Identifier
22451, 1992-093EQ
Orbit
LEO
Country
Flag of CISCIS
Related business
Manufacturer
Unknown
Mission
Spacecraft
Bus & Motor
Unknown
Mass
Unknown
Launch date (UTC)
1992-12-25 (33 years ago)
Launch vehicle
Unknown
Launch site
Tyuratam Missile And Space Complex (TTMTR)
Object type
Payload
Rocket body
Debris
Shape & HBR
Unknown shape, 0.1 m
Radar Cross Section
Small (<0.1 m²)

Expand to show TLE details & history
Last TLE update: 11 hours ago

TLE from 11 hours ago
0 SL-16 DEB
1 22451U 92093EQ  25349.87700074  .00000149  00000-0  13486-3 0  9992
2 22451  71.1362 140.4065 0128288  90.5085  33.1222 13.94287432674139
Epoch: 2025-12-15T21:02Z
TLE epoch observation values (Epoch: 2025-12-15T21:02:52.863Z)
Latitude
51.40638°
Longitude
-105.28651°
Altitude
843.396 km
Speed
7.476 km/s
True Right ascension
19h 40m 48s
True Declination
51° 14' 26"
Sunlit
Object was in daylight at epoch
Visualization orbit readout
Latitude
Unknown
Longitude
Unknown
Altitude
Unknown
Speed
Unknown
Apparent Right ascension
Unknown
Apparent Declination
Unknown
Sunlit
N/A
Visualization observer readout
Local Sidereal Time
06:19:49
Azimuth
Unknown
Elevation
Unknown
Doppler factor
Unknown
Orbital elements
Apogee altitude
1,005.094 km
Perigee altitude
818.058 km
Semi-major axis
7,289.713 km
Eccentricity
0.01283
Inclination
71.1362°
RAAN
140.4065°
Arg. of periapsis
90.5085°
True anomaly
33.93639°
Mean anomaly
33.1222°
Eccentric anomaly
33.5282°
Mean motion
3.48721 °/min
Orbital period
103.23 mins
BSTAR
0.00013486
Loading maneuver chart data...
Computing Atmospheric mass density...
Loading historical data...
Loading historical data...
Loading historical data...
Loading historical data...
Loading historical data...
Loading historical data...
Loading historical data...

Documentation

Showing up to 5 results
|